Regional Weather Roundup
Issued by NWS Northern Indiana

Home | Current Version | Previous Version | Text Only | Print | Product List | Glossary On
Versions: 1 2 3 4 5 6 7 8 9 10 11 12 13 14 15 16 17 18 19 20 21 22 23 24 25 26 27 28 29 30 31 32 33 34 35 36 37 38 39 40 41 42 43 44 45 46 47 48 49 50
000
ASUS43 KIWX 292210
RWRIWX

KIWX WEATHER ROUNDUP
NATIONAL WEATHER SERVICE NORTHERN INDIANA
600 PM EDT FRI JUL 29 2016

NOTE: "FAIR" INDICATES FEW OR NO CLOUDS BELOW 12,000 FEET WITH NO
SIGNIFICANT WEATHER AND/OR OBSTRUCTIONS TO VISIBILITY.

* THESE STATIONS ARE NOT UNDER NWS QUALITY CONTROL. THEY ALSO MAY NOT
  REPORT WEATHER SUCH AS PRECIPITATION OR FOG.

INZ001>027-292300-
NORTHERN INDIANA

CITY           SKY/WX    TMP DP  RH WIND       PRES   REMARKS
GARY*          PTSUNNY   73  72  94 N8        29.95R
VALPARAISO     LGT RAIN  69  65  86 CALM      29.93F
MICHIGAN CITY* LGT RAIN  68  68 100 CALM      29.92F
LAPORTE*       LGT RAIN  70  70 100 E6        29.92F
KNOX*          MOSUNNY   73  63  68 N6        29.91F
SOUTH BEND     LGT RAIN  72  69  90 NE6       29.93F
ELKHART*       LGT RAIN  75  66  73 NE5       29.94F
GOSHEN         LGT RAIN  75  67  76 NE8       29.92F
MONTICELLO*    PTSUNNY   80  69  67 N9        29.89S
LOGANSPORT*    CLOUDY    79  66  65 NE5       29.90F
ROCHESTER*     CLOUDY    79  70  73 CALM      29.91F
WARSAW*        MOSUNNY   73  70  88 NE6       29.91F
ANGOLA*          N/A     75  68  78 NE3       29.93F
FORT WAYNE     CLOUDY    80  67  64 NE14      29.89S THUNDER
HUNTINGTON*    RAIN      76  71  86 CALM      29.89S
PERU/GRISSOM   PTSUNNY   77  67  72 NE5       29.89S
MARION*        LGT RAIN  71  68  90 SW3       29.92R

$$
INZ028>050-292300-
CENTRAL INDIANA

CITY           SKY/WX    TMP DP  RH WIND       PRES   REMARKS
LAFAYETTE      SUNNY     83  70  64 NW8       29.88R
KOKOMO*        CLOUDY    75  66  73 SE6       29.90F
MUNCIE*        CLOUDY    83  70  64 CALM      29.90R
INDIANAPOLIS   PTSUNNY   82  69  64 S13       29.90R

$$
MIZ043>046-050>051-056>058-064>065-071>073-077>080-292300-
SOUTHWEST LOWER MICHIGAN

CITY           SKY/WX    TMP DP  RH WIND       PRES   REMARKS
BATTLE CREEK   CLOUDY    74  66  76 NE9       29.96S
BENTON HARBOR  CLOUDY    76  66  71 E8        29.93R
COLDWATER*     PTSUNNY   76  69  80 NE7       29.94F
HILLSDALE*     CLOUDY    77  67  71 N5        29.95S
HOLLAND        CLOUDY    76  62  62 E13G18    29.96R
GRAND RAPIDS   PTSUNNY   75  64  68 E13       29.98S
KALAMAZOO      CLOUDY    76  65  68 VRB5      29.95S
STURGIS*       CLOUDY    75  68  79 NE8       29.93F
THREE RIVERS*  FAIR      78  67  71 E6        29.94F

$$
OHZ001>008-015>018-024>025-292300-
NORTHWEST OHIO

CITY           SKY/WX    TMP DP  RH WIND       PRES   REMARKS
DEFIANCE       MOSUNNY   79  68  69 N9        29.92R
FINDLAY        LGT RAIN  77  67  71 NE9       29.92R
TOLEDO EXPRESS CLOUDY    73  72  96 NE10      29.93R
TOLEDO METCALF CLOUDY    77  69  76 NE8       29.94R
LIMA           CLOUDY    79  73  82 CALM      29.91S

$$
AND FOR LAKE MICHIGAN COASTAL AND OPEN LAKE BUOY OBSERVATIONS

STATION/POSITION TEMP    WIND        PRES    VSBY  WAVE
                 AIR SEA DIR/SP/G                  HT/PER
                 (F)     (DEG/KT/KT) (MB)    (MI)  (FT/S)
CALUMET HARBOR    75     350/  7/ 13 1012.5F
MICHIGAN CITY     67     130/  8/ 10   N/A
BURNS HARBOR      70     140/  9/ 14 1013.5S
SAINT JOSEPH      75     200/  2/  4 1013.9
SOUTH LAKE BUOY   73 74   60/ 16/ 19 1012.9F         3/ 6
4 MI NW BRIDGMAN  73 76  100/ 12/ 16 1013.3R         2
MICHIGAN CITY     70 77   50/  2/  8   N/A           2/ 5

$$
&&




USA.gov is the U.S. government's official web portal to all federal, state and local government web resources and services.